This is the latest recevied weather packets stored in our database for station/object W8LMG. If no packets are shown the sender has not sent any weather packets the latest 10 day(s).
| Time | Temp. | Humidity | Pressure | Rain* | Wind** | Luminosity | Snow |
|---|---|---|---|---|---|---|---|
| 1777147949 | 17.22° C | 86% | 1010.1 hPa | 0 mm | - | 141 W/m² | - |
| 1777147644 | 17.22° C | 86% | 1010.3 hPa | 0 mm | - | 131 W/m² | - |
| 1777147340 | 17.22° C | 86% | 1010.4 hPa | 0 mm | - | 105 W/m² | - |
| 1777147035 | 17.78° C | 87% | 1010.5 hPa | 0 mm | - | 114 W/m² | - |
| 1777146732 | 17.22° C | 87% | 1010.5 hPa | 0 mm | - | 117 W/m² | - |
| 1777146428 | 17.22° C | 89% | 1010.6 hPa | 0 mm | - | 119 W/m² | - |
| 1777146125 | 17.22° C | 89% | 1010.9 hPa | 0 mm | - | 116 W/m² | - |
| 1777145825 | 17.22° C | 89% | 1010.5 hPa | 0 mm | - | 112 W/m² | - |
| 1777145522 | 17.78° C | 88% | 1010.7 hPa | 0 mm | - | 83 W/m² | - |
| 1777145216 | 17.78° C | 84% | 1010.6 hPa | 0 mm | - | 69 W/m² | - |
| 1777144912 | 18.33° C | 80% | 1010.7 hPa | 0 mm | - | 74 W/m² | - |
| 1777144611 | 18.33° C | 79% | 1010.8 hPa | 0 mm | - | 93 W/m² | - |
| 1777144307 | 18.33° C | 79% | 1010.7 hPa | 0 mm | - | 114 W/m² | - |
| 1777144003 | 18.33° C | 78% | 1010.8 hPa | 0 mm | - | 88 W/m² | - |
| 1777143699 | 18.33° C | 81% | 1010.7 hPa | 0 mm | - | 74 W/m² | - |
| 1777143396 | 18.33° C | 81% | 1010.5 hPa | 0 mm | - | 43 W/m² | - |
| 1777143092 | 18.33° C | 81% | 1010.7 hPa | 0 mm | - | 55 W/m² | - |
| 1777142788 | 18.33° C | 82% | 1010.7 hPa | 0 mm | - | 102 W/m² | - |
| 1777142485 | 18.33° C | 83% | 1010.7 hPa | 0 mm | - | 104 W/m² | - |
| 1777142184 | 18.33° C | 81% | 1010.8 hPa | 0 mm | - | 107 W/m² | - |
| 1777141881 | 18.33° C | 80% | 1010.8 hPa | 0 mm | - | 104 W/m² | - |
| 1777141578 | 18.89° C | 81% | 1010.7 hPa | 0 mm | - | 137 W/m² | - |
| 1777141277 | 18.33° C | 81% | 1010.7 hPa | 0 mm | - | 246 W/m² | - |
| 1777140973 | 18.33° C | 83% | 1010.9 hPa | 0 mm | - | 240 W/m² | - |
| 1777140670 | 18.33° C | 83% | 1011.2 hPa | 0 mm | - | 185 W/m² | - |
* Rain latest hour (hover to see other rain measurements)
** Current wind speed in m/s (hover to see current wind gust speed)